| time (UTC) | temp F | wind direction | speed knots | gust knots | rain 1hr in | rain 24hr in | rain mn in | humidity % | barometer mb |
| 20260509101328 | 67 | 110 | 0.9 | 0.9 | 0.00 | 0.00 | 0.00 | 34 | 1018.0 |
| 20260509100118 | 67 | 111 | 0.9 | 1.7 | 0.00 | 0.00 | 0.00 | 34 | 1018.0 |
| 20260509094823 | 68 | 95 | 1.7 | 2.6 | 0.00 | 0.00 | 0.00 | 32 | 1017.7 |
| 20260509093416 | 69 | 78 | 1.7 | 5.2 | 0.00 | 0.00 | 0.00 | 31 | 1017.5 |
| 20260509092022 | 70 | 78 | 2.6 | 5.2 | 0.00 | 0.00 | 0.00 | 29 | 1017.4 |
| 20260509090732 | 70 | 51 | 1.7 | 3.5 | 0.00 | 0.00 | 0.00 | 28 | 1017.3 |
| 20260509085258 | 71 | 102 | 2.6 | 5.2 | 0.00 | 0.00 | 0.00 | 27 | 1017.3 |
| 20260509084056 | 71 | 112 | 2.6 | 3.5 | 0.00 | 0.00 | 0.00 | 28 | 1017.2 |
| 20260509082823 | 71 | 31 | 1.7 | 5.2 | 0.00 | 0.00 | 0.00 | 27 | 1017.1 |
| 20260509081610 | 71 | 86 | 2.6 | 5.2 | 0.00 | 0.00 | 0.00 | 26 | 1017.0 |
| 20260509080333 | 71 | 31 | 2.6 | 5.2 | 0.00 | 0.00 | 0.00 | 27 | 1016.9 |
| 20260509074852 | 70 | 33 | 3.5 | 5.2 | 0.00 | 0.00 | 0.00 | 28 | 1016.9 |
| 20260509073513 | 71 | 13 | 2.6 | 6.1 | 0.00 | 0.00 | 0.00 | 28 | 1016.9 |
| 20260509072048 | 71 | 55 | 2.6 | 6.1 | 0.00 | 0.00 | 0.00 | 28 | 1016.6 |
| 20260509070623 | 71 | 90 | 5.2 | 8.7 | 0.00 | 0.00 | 0.00 | 28 | 1016.9 |
| 20260509065248 | 72 | 82 | 3.5 | 7.8 | 0.00 | 0.00 | 0.00 | 27 | 1016.7 |
| 20260509063828 | 72 | 81 | 3.5 | 8.7 | 0.00 | 0.00 | 0.00 | 28 | 1016.7 |
| 20260509062513 | 72 | 356 | 2.6 | 5.2 | 0.00 | 0.00 | 0.00 | 29 | 1016.8 |
| 20260509061203 | 72 | 93 | 3.5 | 7.0 | 0.00 | 0.00 | 0.00 | 28 | 1017.0 |
| 20260509055948 | 72 | 73 | 5.2 | 8.7 | 0.00 | 0.00 | 0.00 | 28 | 1016.8 |
| 20260509054743 | 72 | 64 | 3.5 | 7.8 | 0.00 | 0.00 | 0.00 | 29 | 1017.0 |
| 20260509053438 | 71 | 73 | 3.5 | 7.0 | 0.00 | 0.00 | 0.00 | 29 | 1017.5 |
| 20260509052028 | 71 | 60 | 2.6 | 7.0 | 0.00 | 0.00 | 0.00 | 29 | 1017.5 |
| 20260509050830 | 70 | 104 | 2.6 | 7.0 | 0.00 | 0.00 | 0.00 | 30 | 1017.7 |
| 20260509045512 | 71 | 56 | 2.6 | 6.1 | 0.00 | 0.00 | 0.00 | 30 | 1018.0 |
| 20260509044213 | 70 | 118 | 2.6 | 7.8 | 0.00 | 0.00 | 0.00 | 30 | 1018.4 |
| 20260509042740 | 70 | 120 | 1.7 | 6.1 | 0.00 | 0.00 | 0.00 | 30 | 1018.3 |
| 20260509041423 | 69 | 115 | 1.7 | 7.0 | 0.00 | 0.00 | 0.00 | 31 | 1018.4 |
| 20260509040101 | 69 | 101 | 3.5 | 7.8 | 0.00 | 0.00 | 0.00 | 30 | 1018.4 |
| 20260509034758 | 69 | 89 | 3.5 | 7.0 | 0.00 | 0.00 | 0.00 | 30 | 1018.6 |
| 20260509033344 | 69 | 71 | 4.3 | 11.3 | 0.00 | 0.00 | 0.00 | 28 | 1018.8 |
| 20260509032146 | 69 | 106 | 3.5 | 7.0 | 0.00 | 0.00 | 0.00 | 28 | 1018.9 |
| 20260509030838 | 68 | 107 | 6.1 | 11.3 | 0.00 | 0.00 | 0.00 | 29 | 1018.9 |
| 20260509025458 | 68 | 104 | 3.5 | 7.8 | 0.00 | 0.00 | 0.00 | 27 | 1019.1 |
| 20260509024103 | 68 | 78 | 3.5 | 8.7 | 0.00 | 0.00 | 0.00 | 28 | 1019.3 |
| 20260509022648 | 67 | 88 | 3.5 | 8.7 | 0.00 | 0.00 | 0.00 | 29 | 1019.3 |
| 20260509021222 | 67 | 79 | 5.2 | 9.6 | 0.00 | 0.00 | 0.00 | 30 | 1019.6 |
| 20260509015833 | 66 | 90 | 5.2 | 8.7 | 0.00 | 0.00 | 0.00 | 33 | 1019.8 |
| 20260509014348 | 66 | 21 | 2.6 | 5.2 | 0.00 | 0.00 | 0.00 | 33 | 1019.9 |
| 20260509013143 | 65 | 82 | 3.5 | 7.8 | 0.00 | 0.00 | 0.00 | 35 | 1020.0 |
| 20260509011743 | 65 | 80 | 4.3 | 7.8 | 0.00 | 0.00 | 0.00 | 39 | 1020.2 |
| 20260509010538 | 65 | 85 | 3.5 | 7.0 | 0.00 | 0.00 | 0.00 | 41 | 1020.3 |
| 20260509005213 | 64 | 92 | 3.5 | 7.0 | 0.00 | 0.00 | 0.00 | 42 | 1020.2 |
| 20260509003801 | 64 | 354 | 1.7 | 6.1 | 0.00 | 0.00 | 0.00 | 45 | 1020.3 |
| 20260509002306 | 64 | 51 | 2.6 | 5.2 | 0.00 | 0.00 | 0.00 | 46 | 1020.1 |
| 20260509000933 | 64 | 90 | 2.6 | 5.2 | 0.00 | 0.00 | 0.00 | 47 | 1020.0 |
| 20260508235734 | 64 | 347 | 2.6 | 7.0 | 0.00 | 0.00 | 0.00 | 47 | 1020.0 |
| 20260508234346 | 64 | 348 | 1.7 | 5.2 | 0.00 | 0.00 | 0.00 | 46 | 1020.0 |
| 20260508232953 | 64 | 83 | 0.9 | 2.6 | 0.00 | 0.00 | 0.00 | 47 | 1019.9 |
| 20260508231633 | 63 | 313 | 0.9 | 1.7 | 0.00 | 0.00 | 0.00 | 47 | 1020.0 |
| 20260508230337 | 61 | 272 | 0.9 | 1.7 | 0.00 | 0.00 | 0.00 | 56 | 1019.9 |
| 20260508224838 | 60 | 244 | 0.9 | 1.7 | 0.00 | 0.00 | 0.00 | 57 | 1019.8 |
| 20260508223357 | 59 | 256 | 1.7 | 3.5 | 0.00 | 0.00 | 0.00 | 60 | 1019.9 |
| 20260508221928 | 57 | 239 | 2.6 | 3.5 | 0.00 | 0.00 | 0.00 | 59 | 1019.8 |
| 20260508220558 | 57 | 243 | 1.7 | 3.5 | 0.00 | 0.00 | 0.00 | 60 | 1019.7 |
| 20260508215338 | 55 | 209 | 0.9 | 2.6 | 0.00 | 0.00 | 0.00 | 62 | 1019.8 |
| 20260508214013 | 55 | 214 | 0.9 | 0.9 | 0.00 | 0.00 | 0.00 | 62 | 1019.4 |
| 20260508212637 | 55 | 220 | 0.0 | 0.9 | 0.00 | 0.00 | 0.00 | 63 | 1019.2 |
| 20260508211218 | 54 | 246 | 0.9 | 0.9 | 0.00 | 0.00 | 0.00 | 63 | 1019.1 |
| 20260508205743 | 53 | 229 | 0.9 | 1.7 | 0.00 | 0.00 | 0.00 | 64 | 1019.0 |
| 20260508204323 | 53 | 223 | 0.0 | 0.0 | 0.00 | 0.00 | 0.00 | 63 | 1018.8 |
| 20260508203003 | 54 | 226 | 0.0 | 0.9 | 0.00 | 0.00 | 0.00 | 61 | 1018.6 |
| 20260508201523 | 54 | 215 | 0.9 | 1.7 | 0.00 | 0.00 | 0.00 | 59 | 1018.4 |
| 20260508200148 | 55 | 212 | 0.0 | 0.9 | 0.00 | 0.00 | 0.00 | 57 | 1018.2 |
| 20260508194719 | 56 | 248 | 1.7 | 6.1 | 0.00 | 0.00 | 0.00 | 55 | 1018.1 |
| 20260508193223 | 55 | 266 | 0.9 | 3.5 | 0.00 | 0.00 | 0.00 | 56 | 1017.9 |
| 20260508191728 | 55 | 275 | 0.9 | 1.7 | 0.00 | 0.00 | 0.00 | 56 | 1017.7 |
| 20260508190303 | 56 | 270 | 0.9 | 2.6 | 0.00 | 0.00 | 0.00 | 54 | 1017.6 |
| 20260508184813 | 56 | 244 | 2.6 | 7.0 | 0.00 | 0.00 | 0.00 | 53 | 1017.4 |
| 20260508183447 | 56 | 247 | 2.6 | 5.2 | 0.00 | 0.00 | 0.00 | 52 | 1017.1 |
| 20260508182228 | 56 | 237 | 2.6 | 5.2 | 0.00 | 0.00 | 0.00 | 51 | 1017.1 |
| 20260508181026 | 56 | 237 | 2.6 | 7.0 | 0.00 | 0.00 | 0.00 | 51 | 1017.0 |
| 20260508175743 | 57 | 262 | 2.6 | 6.1 | 0.00 | 0.00 | 0.00 | 49 | 1016.9 |
| 20260508174323 | 57 | 242 | 2.6 | 6.1 | 0.00 | 0.00 | 0.00 | 50 | 1016.9 |
| 20260508173113 | 56 | 240 | 3.5 | 5.2 | 0.00 | 0.00 | 0.00 | 50 | 1016.8 |
| 20260508171823 | 56 | 244 | 2.6 | 5.2 | 0.00 | 0.00 | 0.00 | 50 | 1016.9 |
| 20260508170518 | 56 | 266 | 0.9 | 2.6 | 0.00 | 0.00 | 0.00 | 49 | 1016.9 |
| 20260508165153 | 57 | 256 | 0.9 | 1.7 | 0.00 | 0.00 | 0.00 | 47 | 1016.8 |
| 20260508163842 | 58 | 245 | 2.6 | 7.0 | 0.00 | 0.00 | 0.00 | 46 | 1016.6 |
| 20260508162638 | 58 | 235 | 3.5 | 7.8 | 0.00 | 0.00 | 0.00 | 46 | 1016.6 |
| 20260508161253 | 58 | 239 | 3.5 | 6.1 | 0.00 | 0.00 | 0.00 | 44 | 1016.6 |
| 20260508160008 | 58 | 248 | 2.6 | 7.0 | 0.00 | 0.00 | 0.00 | 44 | 1016.6 |
| 20260508154703 | 59 | 249 | 2.6 | 6.1 | 0.00 | 0.00 | 0.00 | 44 | 1016.6 |
| 20260508153232 | 59 | 247 | 3.5 | 6.1 | 0.00 | 0.00 | 0.00 | 42 | 1016.7 |
| 20260508152028 | 59 | 251 | 0.9 | 3.5 | 0.00 | 0.00 | 0.00 | 43 | 1016.5 |
| 20260508150548 | 59 | 264 | 2.6 | 7.8 | 0.00 | 0.00 | 0.00 | 42 | 1016.6 |
| 20260508145328 | 59 | 242 | 2.6 | 7.0 | 0.00 | 0.00 | 0.00 | 44 | 1016.6 |
| 20260508143933 | 59 | 240 | 0.9 | 3.5 | 0.00 | 0.00 | 0.00 | 46 | 1016.6 |
| 20260508142643 | 59 | 239 | 1.7 | 5.2 | 0.00 | 0.00 | 0.00 | 47 | 1016.7 |
| 20260508141448 | 59 | 232 | 1.7 | 5.2 | 0.00 | 0.00 | 0.00 | 47 | 1016.5 |
| 20260508140034 | 59 | 248 | 0.9 | 3.5 | 0.00 | 0.00 | 0.00 | 47 | 1016.4 |
| 20260508134717 | 59 | 235 | 2.6 | 6.1 | 0.00 | 0.00 | 0.00 | 47 | 1016.4 |
| 20260508133347 | 59 | 285 | 1.7 | 6.1 | 0.00 | 0.00 | 0.00 | 47 | 1016.5 |
| 20260508132003 | 58 | 219 | 0.0 | 0.9 | 0.00 | 0.00 | 0.00 | 54 | 1016.6 |
| 20260508130728 | 59 | 219 | 0.9 | 0.9 | 0.00 | 0.00 | 0.00 | 52 | 1016.3 |
| 20260508125328 | 60 | 237 | 0.9 | 2.6 | 0.00 | 0.00 | 0.00 | 47 | 1016.2 |
| 20260508123903 | 61 | 242 | 1.7 | 3.5 | 0.00 | 0.00 | 0.00 | 43 | 1016.0 |
| 20260508122608 | 61 | 241 | 0.9 | 2.6 | 0.00 | 0.00 | 0.00 | 43 | 1015.9 |
| 20260508121307 | 61 | 234 | 0.9 | 0.9 | 0.00 | 0.00 | 0.00 | 41 | 1015.7 |
| 20260508120105 | 62 | 241 | 0.0 | 0.9 | 0.00 | 0.00 | 0.00 | 37 | 1015.5 |
| 20260508114827 | 62 | 240 | 0.9 | 1.7 | 0.00 | 0.00 | 0.00 | 37 | 1015.5 |
| 20260508113410 | 63 | 273 | 0.0 | 0.9 | 0.00 | 0.00 | 0.00 | 37 | 1015.0 |
| 20260508112124 | 63 | 251 | 1.7 | 6.1 | 0.00 | 0.00 | 0.00 | 39 | 1015.0 |
| 20260508110803 | 64 | 307 | 0.9 | 5.2 | 0.00 | 0.00 | 0.00 | 40 | 1014.7 |
| 20260508105558 | 64 | 320 | 0.9 | 3.5 | 0.00 | 0.00 | 0.00 | 43 | 1014.3 |
| 20260508104258 | 64 | 92 | 0.9 | 1.7 | 0.00 | 0.00 | 0.00 | 50 | 1013.9 |
| 20260508102843 | 65 | 107 | 0.9 | 3.5 | 0.00 | 0.00 | 0.00 | 49 | 1013.5 |